KG4WIV Weather Reports


time (UTC)temp
C
wind
direction
speed
KPH
gust
KPH
rain 1hr
cm
rain 24hr
cm
rain mn
cm
humidity
%
barometer
mb
20260504081510 5 311 0.0 0.0 0.00 0.00 0.00 92 1018.2
20260504044600 8 311 0.0 0.0 0.00 0.00 0.00 88 1018.9
20260504043054 8 311 0.0 0.0 0.00 0.00 0.00 88 1018.8
20260504041551 8 311 0.0 0.0 0.00 0.00 0.00 87 1018.9
20260504040057 8 311 0.0 0.0 0.00 0.00 0.00 86 1018.9
20260504034621 9 311 0.0 0.0 0.00 0.00 0.00 85 1019.0
20260504033049 9 311 0.0 0.0 0.00 0.00 0.00 83 1019.0
20260504031546 10 311 0.0 0.0 0.00 0.00 0.00 83 1019.0
20260504030047 10 311 0.0 0.0 0.00 0.00 0.00 81 1019.0
20260504024545 10 311 0.0 0.0 0.00 0.00 0.00 80 1019.0
20260504023042 11 311 0.0 0.0 0.00 0.00 0.00 78 1018.8
20260504021540 11 311 0.0 0.0 0.00 0.00 0.00 76 1018.7
20260504020038 12 311 0.0 0.0 0.00 0.00 0.00 71 1018.4
20260504014542 12 311 0.0 0.0 0.00 0.00 0.00 70 1018.2
20260504013050 13 311 0.0 0.0 0.00 0.00 0.00 70 1018.0
20260504011538 13 311 0.0 0.0 0.00 0.00 0.00 63 1017.9
20260504010039 14 311 0.0 0.0 0.00 0.00 0.00 62 1017.9
20260504004535 15 311 0.0 0.0 0.00 0.00 0.00 58 1017.8
20260504003039 16 311 0.0 0.0 0.00 0.00 0.00 54 1017.4
20260504001540 16 311 0.0 0.0 0.00 0.00 0.00 51 1017.4
20260504000042 17 311 0.0 0.0 0.00 0.00 0.00 49 1017.4
20260503234538 17 311 0.0 1.6 0.00 0.00 0.00 46 1017.3
20260503233045 18 242 0.0 1.6 0.00 0.00 0.00 47 1017.4
20260503231537 18 242 0.0 3.2 0.00 0.00 0.00 45 1017.4
20260503230036 18 341 0.0 1.6 0.00 0.00 0.00 46 1017.5
20260503224536 19 223 0.0 3.2 0.00 0.00 0.00 41 1017.6
20260503223039 19 40 0.0 3.2 0.00 0.00 0.00 40 1017.5
20260503221538 19 16 0.0 4.8 0.00 0.00 0.00 39 1017.6
20260503220037 19 277 0.0 4.8 0.00 0.00 0.00 40 1017.6
20260503214536 19 227 0.0 4.8 0.00 0.00 0.00 41 1017.7
20260503213036 19 21 0.0 4.8 0.00 0.00 0.00 42 1017.8
20260503211535 20 256 0.0 3.2 0.00 0.00 0.00 42 1017.9
20260503210035 19 229 1.6 6.4 0.00 0.00 0.00 41 1018.0
20260503204534 19 252 0.0 3.2 0.00 0.00 0.00 41 1018.2
20260503203039 19 281 0.0 3.2 0.00 0.00 0.00 44 1018.3
20260503201532 19 265 1.6 4.8 0.00 0.00 0.00 42 1018.6
20260503200031 19 13 0.0 4.8 0.00 0.00 0.00 40 1018.9
20260503194533 19 242 0.0 6.4 0.00 0.00 0.00 42 1019.2
20260503193029 18 5 0.0 3.2 0.00 0.00 0.00 43 1019.5
20260503191535 18 248 3.2 6.4 0.00 0.00 0.00 42 1019.7
20260503190029 18 210 0.0 4.8 0.00 0.00 0.00 45 1019.9
20260503184523 18 207 1.6 4.8 0.00 0.00 0.00 44 1020.0
20260503183025 17 19 0.0 6.4 0.00 0.00 0.00 44 1020.3
20260503181524 17 21 0.0 3.2 0.00 0.00 0.00 45 1020.3
20260503180031 17 26 1.6 6.4 0.00 0.00 0.00 47 1020.2
20260503174520 17 242 0.0 4.8 0.00 0.00 0.00 44 1020.4
20260503173018 17 179 1.6 6.4 0.00 0.00 0.00 47 1020.7
20260503171516 17 270 0.0 3.2 0.00 0.00 0.00 49 1020.8